EHI
30 29 27 18 7 1 0 0 1 0 0 0 0 0 0 0 0 0 0 1 2 1 0 0 1 0 0 0 0 0 0 1 1 1 1 2 2 2 1 0 0 0 0 1 2 2 1 0 0
24 21 18 12 4 0 0 0 1 0 0 0 0 0 0 0 0 0 0 1 2 1 0 1 1 1 0 0 0 0 0 0 0 1 1 2 2 1 0 0 0 0 0 0 1 1 0 0 0
21 16 11 6 2 0 0 0 0 0 0 0 0 0 0 0 0 0 0 1 1 0 0 1 2 1 0 0 0 0 0 0 0 0 1 2 1 0 0 0 0 0 0 0 0 0 0 1 1
20 15 8 3 1 0 0 0 0 0 0 0 0 0 0 0 0 0 0 0 0 0 0 1 2 1 0 0 0 0 0 0 0 0 0 0 0 0 0 0 0 0 0 0 0 0 1 2 2
17 12 4 1 0 0 0 0 0 0 0 0 0 0 0 0 0 0 0 0 0 0 0 1 2 2 1 0 0 0 0 0 1 1 0 0 0 0 1 0 0 0 0 0 0 0 1 1 1
15 8 2 0 0 0 0 0 0 0 0 0 0 0 0 0 0 0 0 0 0 0 0 1 3 3 2 2 1 1 1 1 1 1 1 0 0 0 0 0 0 0 0 0 0 0 0 0 0
9 5 1 0 0 0 0 0 0 0 0 0 0 0 0 0 0 0 0 0 0 0 0 0 1 2 2 3 3 3 3 2 1 1 1 1 1 1 1 0 0 0 0 0 0 0 0 0 0
3 2 1 0 0 0 0 0 0 0 0 0 0 0 0 0 0 0 0 0 0 0 0 0 0 0 1 2 2 3 3 2 0 0 0 1 1 2 1 0 0 0 0 0 0 0 0 0 0
1 1 0 0 0 0 0 0 0 0 0 0 0 0 0 0 0 0 0 0 0 0 0 0 0 0 0 0 1 1 2 1 0 0 0 0 1 1 1 0 0 0 0 0 0 0 0 0 0
0 0 0 0 0 0 0 0 0 0 0 0 0 1 0 0 0 0 0 0 0 0 0 0 0 0 0 0 0 0 0 0 0 0 0 0 0 0 0 0 0 0 0 0 0 0 0 0 0
0 0 0 0 0 0 0 0 0 0 0 0 0 0 0 0 0 0 0 0 0 0 0 0 0 0 0 0 0 0 0 0 0 0 0 0 0 0 0 0 0 0 0 0 0 0 0 0 0
0 0 0 0 0 0 0 0 0 0 0 0 0 0 0 0 0 0 0 0 0 0 0 0 0 0 0 0 0 0 0 0 0 0 0 0 0 0 0 0 0 0 0 0 0 0 0 0 0
0 0 0 0 0 0 0 0 0 0 0 0 0 0 0 0 0 0 0 0 0 0 0 0 0 0 0 0 0 0 0 0 0 0 0 0 0 0 0 0 0 0 0 0 0 0 0 0 0
0 0 0 0 0 0 0 0 0 0 0 0 0 0 0 0 0 0 0 0 0 0 1 1 0 0 0 0 0 0 0 0 0 0 0 0 0 0 0 0 0 0 0 0 0 0 0 0 0
0 0 0 0 0 0 0 0 0 0 0 0 0 0 0 0 0 0 0 0 0 1 2 2 1 0 0 0 0 0 0 0 0 0 0 0 0 0 0 0 0 0 0 0 0 0 0 0 0
0 0 0 0 0 0 0 0 0 1 1 0 0 0 0 0 0 0 0 0 0 1 2 2 1 0 0 0 0 0 0 0 0 0 0 0 0 0 0 0 0 0 0 0 0 0 0 0 0
0 0 0 0 0 0 0 0 0 1 1 0 0 0 1 1 1 0 0 0 0 0 1 1 1 1 0 0 0 0 0 0 0 0 0 0 0 0 0 0 0 0 0 0 0 0 0 0 0
0 0 0 0 0 0 0 0 0 1 1 0 0 0 1 2 1 0 0 0 0 0 0 1 2 2 1 0 0 0 0 0 0 0 0 0 0 0 0 0 0 0 0 0 0 0 0 0 0
0 0 0 0 0 0 0 0 0 0 1 0 0 0 1 2 1 0 0 0 0 0 1 3 4 4 3 2 1 1 1 1 0 1 2 1 1 1 1 0 0 1 1 1 0 0 0 0 0
0 0 0 0 0 0 0 0 0 0 0 0 0 1 1 2 2 1 0 0 0 0 1 3 5 6 6 5 3 3 3 3 2 2 3 3 2 2 2 1 1 2 2 2 1 0 0 0 0
0 0 0 0 0 0 0 0 0 0 0 0 0 1 2 2 3 2 1 0 0 0 0 1 4 7 8 7 6 5 5 5 3 3 3 3 3 3 3 3 3 3 3 2 1 0 0 0 0
0 0 0 0 0 0 0 0 0 0 0 0 0 1 2 3 3 4 3 1 0 0 0 1 3 6 8 9 9 7 5 4 3 3 3 3 3 3 3 3 3 3 3 3 1 0 1 1 1
0 0 0 0 0 0 0 0 0 0 0 0 0 1 2 3 3 4 5 3 2 2 2 2 3 6 9 11 11 9 5 4 3 3 3 3 3 3 3 3 3 3 3 3 2 2 2 2 1
0 0 0 0 0 0 0 0 0 0 0 0 0 1 2 2 1 2 4 5 5 6 6 5 5 7 9 11 11 8 5 3 3 3 3 3 3 3 3 3 3 3 3 3 3 3 3 2 2
0 0 0 0 0 0 0 0 0 0 0 0 0 0 1 1 1 2 3 5 6 8 9 8 9 10 10 10 8 5 3 2 2 3 3 3 3 3 3 3 3 3 3 3 3 3 3 1 1
0 0 0 0 0 0 0 0 0 0 0 0 0 0 0 1 2 3 4 5 6 7 8 8 10 11 11 9 6 3 1 1 1 2 3 3 3 3 3 3 3 3 3 3 2 3 2 1 0
0 0 0 0 0 0 0 0 0 0 0 0 0 0 0 1 2 3 5 7 7 7 8 8 8 9 9 8 5 4 2 1 1 2 3 3 3 3 3 3 3 3 3 3 3 2 1 0 0
0 0 0 0 0 0 0 0 0 0 0 0 0 0 0 1 2 4 5 6 7 8 9 9 7 6 6 4 3 4 3 2 1 2 2 1 1 2 3 3 3 3 3 3 2 1 0 0 0
0 0 0 0 0 0 0 0 0 0 0 0 0 0 0 1 2 3 4 5 7 8 8 7 6 4 3 2 1 2 2 2 2 2 1 0 0 1 1 2 3 2 1 1 1 1 0 0 0
0 0 0 0 0 0 0 0 0 0 0 0 0 0 0 0 1 3 4 5 5 6 6 6 5 4 2 1 2 2 1 1 3 3 2 1 0 0 0 1 2 1 0 0 1 0 0 0 0
Wind_Speed
8 9 7 2 2 1 4 5 6 6 7 9 8 8 11 12 9 8 3 4 7 10 10 10 10 10 10 10 10 10 10 11 10 10 10 10 11 11 11 11 10 10 10 10 10 10 10 10 10
9 6 4 2 2 1 4 5 7 8 7 5 7 10 11 12 11 8 4 4 8 10 10 9 10 10 10 10 10 10 11 11 11 11 10 10 11 11 11 10 10 10 11 10 10 10 10 9 9
10 7 4 2 1 3 5 6 6 7 4 6 8 10 9 8 9 6 4 5 9 11 11 9 10 10 10 10 10 10 10 11 11 11 11 11 11 10 10 10 10 10 11 11 10 9 9 9 8
5 3 3 1 4 6 5 6 6 5 4 6 8 9 9 9 7 7 6 8 10 11 11 10 11 11 10 10 10 10 11 11 11 11 11 11 10 10 10 10 10 10 11 11 10 9 8 8 8
3 2 2 1 4 6 5 6 5 5 5 7 10 11 9 9 9 8 6 8 9 10 11 10 11 11 11 10 10 10 10 10 11 11 11 11 11 11 11 11 11 11 10 10 10 9 8 8 8
3 2 1 2 5 5 5 4 4 6 5 6 9 11 8 7 7 6 6 7 8 10 11 10 12 11 11 11 10 10 10 10 10 10 10 11 11 12 12 11 11 11 11 10 10 9 9 9 8
3 2 1 3 4 4 4 3 5 6 5 5 7 9 8 7 6 6 7 7 7 7 9 9 9 9 10 10 10 9 9 9 8 9 9 9 10 11 11 11 11 11 11 10 10 10 9 9 8
3 2 1 2 3 3 4 5 6 6 5 5 4 7 7 7 6 7 7 7 6 6 6 7 8 8 7 7 9 8 8 7 7 6 7 8 8 9 10 10 10 10 10 10 10 9 8 8 7
3 1 1 2 3 3 4 5 5 5 5 6 8 10 11 10 8 7 6 6 5 5 5 5 6 6 7 7 8 7 6 6 5 4 4 4 3 5 5 9 9 9 8 8 7 7 6 6 5
1 0 1 2 3 4 3 4 4 4 5 6 8 11 12 9 8 7 6 6 5 5 5 4 5 5 5 5 5 3 3 3 2 3 3 2 3 4 6 7 7 7 6 5 4 3 3 2 1
1 1 1 2 3 3 2 3 3 4 4 5 7 11 10 8 7 7 7 6 5 5 3 4 4 5 5 3 3 2 2 2 2 2 3 3 3 3 4 2 3 2 3 1 1 1 0 2 2
1 0 2 2 3 1 1 2 3 3 3 4 7 10 10 8 7 7 7 7 6 5 3 3 4 5 5 4 2 2 2 1 2 2 4 3 2 2 2 2 2 2 1 1 1 1 2 3 3
1 1 1 2 2 0 0 2 3 3 4 4 7 9 8 7 7 7 7 7 7 5 4 4 4 4 5 4 2 3 2 2 2 1 2 3 2 2 2 2 2 2 1 1 1 2 3 3 4
1 1 1 2 3 1 1 1 3 4 5 6 7 7 8 6 6 6 7 7 7 6 5 4 3 4 4 3 2 3 2 2 2 1 2 3 2 2 2 3 2 2 2 2 2 3 3 2 3
2 2 2 3 4 3 1 2 4 5 6 6 7 7 7 7 6 6 6 6 6 6 6 5 3 4 4 3 3 3 2 2 2 1 2 3 3 3 3 2 2 2 2 3 3 3 2 3 3
5 5 4 4 5 5 4 3 4 7 7 6 6 7 7 6 6 6 7 6 6 6 7 6 3 3 4 3 3 2 2 2 2 2 2 3 4 4 3 2 2 3 3 2 2 2 3 3 3
6 6 5 5 6 5 4 3 3 6 6 6 7 7 8 7 7 6 6 6 6 6 7 7 5 4 4 3 2 2 3 2 2 2 2 3 3 4 3 2 2 3 2 2 3 3 2 2 3
5 5 4 5 6 6 4 4 4 5 5 4 5 6 7 7 6 6 6 6 6 5 6 7 5 4 4 2 2 2 2 2 2 2 2 3 2 3 3 2 3 3 2 2 3 3 2 2 1
6 6 5 3 3 4 3 4 4 5 5 5 4 4 6 6 6 6 6 6 6 5 4 6 6 5 4 2 2 2 2 2 2 2 2 2 2 3 3 2 3 2 2 3 3 2 2 1 1
7 7 6 3 2 3 3 4 4 6 6 5 5 5 5 7 6 6 6 6 5 5 5 5 5 5 5 3 2 2 3 2 2 1 1 1 3 2 2 2 2 2 2 3 3 2 2 1 1
8 7 6 4 3 5 4 5 6 7 7 6 4 5 6 7 8 7 7 6 5 4 4 5 5 5 6 4 2 2 3 2 2 1 1 1 2 2 2 2 2 2 2 2 2 2 2 1 1
6 4 5 6 5 4 7 5 5 8 8 7 6 5 5 6 7 7 7 6 5 5 4 4 5 6 6 5 3 4 3 2 2 2 1 1 2 2 2 2 2 2 2 2 1 2 1 1 1
5 5 7 8 7 8 8 6 3 6 8 8 8 6 5 5 6 7 7 7 6 5 4 3 4 4 5 5 4 4 3 2 2 2 2 2 1 2 2 2 2 2 2 2 2 2 1 1 1
5 7 9 8 6 9 9 7 3 3 6 7 7 7 6 6 6 6 6 6 5 5 4 3 3 3 4 5 5 4 4 3 3 3 2 2 1 1 2 2 2 2 2 2 2 2 2 1 1
7 6 4 5 5 6 6 4 2 3 4 4 5 6 6 6 6 6 7 7 5 5 4 4 3 3 4 4 4 4 4 4 4 3 3 2 2 1 2 1 1 1 2 2 2 2 1 1 1
7 7 5 4 4 3 3 2 3 4 5 4 4 5 6 6 6 6 7 6 6 6 5 4 4 3 3 3 3 4 4 3 3 3 3 2 2 2 3 2 2 2 1 2 2 1 1 1 1
7 7 8 8 8 6 3 3 3 3 4 3 4 5 5 5 6 6 6 6 6 7 6 5 4 4 3 3 2 3 4 4 3 3 3 2 2 2 2 3 3 2 2 2 2 1 0 1 1
8 7 5 5 5 6 4 3 2 4 4 2 3 4 4 4 4 5 6 7 6 6 6 6 5 4 4 3 2 2 2 3 4 3 3 3 3 2 3 3 3 3 2 2 2 1 1 2 1
7 7 6 5 6 5 3 0 2 3 3 2 2 3 3 4 4 3 4 6 6 6 6 5 5 4 4 4 3 3 2 2 3 3 3 3 3 3 3 2 2 2 2 2 2 1 0 1 1
6 6 6 5 6 6 4 1 2 2 2 2 1 2 3 4 3 3 3 5 6 6 6 5 5 4 4 3 3 3 2 2 2 2 2 2 2 2 2 3 2 2 2 2 2 2 1 0 0
Wind_Direction
255 240 242 247 265 235 64 59 68 57 55 50 43 52 57 50 53 85 106 84 93 96 97 85 74 75 74 72 70 68 67 65 65 66 65 67 68 70 69 67 63 64 68 69 71 75 76 77 75
271 262 261 239 242 99 73 74 70 63 61 64 60 62 65 66 75 95 108 96 95 93 88 84 84 80 77 75 72 69 69 68 69 69 69 70 71 71 70 71 68 66 67 72 74 76 78 79 78
261 264 260 253 35 82 85 81 84 82 73 79 74 64 55 68 78 102 128 113 95 92 92 93 92 88 83 79 75 71 71 70 69 69 70 72 73 75 75 73 73 72 72 73 75 77 78 77 76
259 256 247 256 69 74 95 103 102 95 78 76 82 77 67 64 85 111 128 112 102 100 99 100 98 95 89 83 78 76 74 73 71 71 72 72 74 76 77 78 77 75 75 76 72 71 76 76 74
242 254 256 108 92 88 82 91 97 96 81 83 91 92 85 77 93 106 109 104 104 106 109 110 107 102 97 91 85 79 78 78 76 75 75 75 75 75 75 77 78 79 76 75 73 69 74 73 68
260 240 243 99 92 85 82 92 97 86 78 81 101 102 97 102 101 106 101 98 103 110 115 117 116 111 105 98 91 86 83 81 81 79 81 82 81 78 76 76 78 80 78 78 73 70 82 77 69
268 275 194 106 94 87 85 75 74 82 80 69 96 106 111 116 118 117 110 105 106 113 122 130 131 122 114 108 101 96 95 93 91 89 89 92 91 89 85 81 79 81 81 81 76 74 78 70 64
287 303 345 102 104 96 85 78 72 72 76 66 70 104 124 128 128 121 115 113 113 116 119 126 132 132 128 122 120 119 116 114 113 111 109 108 104 100 96 87 85 86 86 85 80 76 75 69 63
288 305 354 74 109 113 120 110 97 94 95 85 72 89 119 126 131 128 123 119 115 110 114 121 122 124 127 130 128 139 141 140 139 140 142 142 127 111 102 97 98 95 93 93 90 86 84 77 63
220 275 50 64 103 119 120 116 126 125 115 105 101 104 120 133 138 136 131 123 121 121 120 121 124 121 117 117 136 153 136 149 165 133 133 131 89 95 100 112 111 107 104 102 104 102 96 100 77
186 203 56 55 69 88 112 109 106 124 108 114 124 127 130 141 144 142 132 125 120 116 111 123 124 118 112 105 121 112 109 126 117 117 111 101 98 107 111 125 122 121 124 117 113 128 143 91 81
221 73 83 88 83 99 112 111 104 100 99 112 127 134 142 153 146 139 130 126 122 116 115 108 113 114 120 117 121 122 113 103 84 64 92 88 88 93 97 106 114 113 109 86 81 89 66 68 70
184 182 144 116 110 76 112 122 120 125 123 128 128 135 144 149 146 142 135 131 129 131 135 117 109 113 108 110 128 112 104 101 94 60 88 93 87 93 95 88 83 85 90 80 50 58 62 57 61
171 151 141 155 157 162 141 167 167 159 155 146 140 146 150 147 144 141 139 139 139 141 133 116 121 114 111 117 111 98 107 110 98 85 92 97 91 83 77 79 74 65 62 70 65 65 61 60 65
190 195 202 204 199 177 163 253 214 170 170 162 158 152 148 146 146 148 144 145 142 141 130 120 131 118 111 105 93 98 99 91 90 98 82 96 89 84 79 73 74 65 57 55 53 51 52 59 63
215 221 217 204 205 185 204 229 201 174 175 171 170 159 156 153 160 158 149 149 145 141 131 131 136 124 114 106 108 109 97 88 85 68 62 82 83 75 69 62 64 67 56 57 61 50 52 54 59
224 230 225 199 201 197 200 217 194 173 181 180 184 170 161 163 168 160 152 148 143 146 143 145 142 135 115 112 120 106 99 95 88 68 58 64 72 83 83 72 67 71 62 54 61 57 55 59 62
237 243 241 217 189 203 201 212 191 186 185 189 188 176 163 164 166 155 154 148 142 148 149 145 141 137 123 121 119 97 95 97 83 79 66 68 69 78 84 83 73 75 74 63 66 71 63 60 63
270 268 263 249 189 213 214 223 199 180 191 195 187 190 170 167 160 152 148 143 145 146 150 144 145 141 127 126 115 116 112 99 87 92 83 86 90 87 78 67 71 68 73 74 74 71 78 55 61
268 267 264 260 243 253 236 235 214 190 193 207 198 195 179 164 156 153 152 149 156 159 165 151 153 153 142 141 138 138 126 124 108 92 107 98 87 89 100 100 91 83 73 65 67 71 63 22 38
251 261 266 268 259 254 250 238 222 189 188 192 208 198 189 171 164 162 161 158 155 160 178 165 156 147 137 141 125 117 100 89 89 101 107 101 103 106 105 101 103 107 100 98 93 92 88 52 1
260 274 281 268 266 254 236 251 222 189 180 184 194 202 196 171 163 163 162 157 166 174 186 166 153 147 141 137 133 137 135 142 158 144 144 121 106 104 91 101 100 97 100 113 115 90 98 97 31
280 297 275 267 265 269 246 249 231 174 182 188 187 191 184 170 163 164 163 166 171 168 169 166 150 143 132 136 143 146 142 151 141 133 141 137 124 123 112 100 87 92 97 96 80 85 62 75 84
269 269 261 252 250 257 244 239 240 189 183 177 174 183 175 166 157 159 158 159 161 155 157 160 139 134 133 138 147 152 153 149 140 135 142 148 138 130 118 107 106 106 102 96 92 91 72 58 58
247 251 253 231 224 243 231 221 198 143 143 154 169 172 165 163 165 164 158 159 162 157 154 151 146 145 142 149 156 161 159 161 161 158 163 156 147 145 141 113 129 109 116 122 117 109 125 115 105
255 254 257 270 263 259 231 220 140 119 117 136 153 160 157 160 168 166 162 161 160 162 161 158 159 154 151 164 167 164 156 156 158 165 157 161 156 169 162 154 139 120 115 117 119 110 141 145 139
258 255 262 275 280 276 228 188 154 112 124 139 150 150 155 160 164 166 166 167 165 166 163 162 165 161 158 163 168 161 154 152 154 160 149 148 150 161 145 140 136 124 110 91 98 117 96 89 87
255 281 272 259 270 270 250 222 170 163 149 137 142 139 153 156 155 166 169 170 171 165 161 159 164 162 162 163 171 157 142 144 148 147 146 159 154 150 147 149 146 131 126 110 93 79 59 78 81
231 243 258 268 267 273 278 46 84 126 129 150 150 140 146 158 159 158 164 167 161 153 155 159 167 167 167 174 169 150 137 132 135 137 145 156 150 151 143 132 123 134 140 123 117 126 95 126 163
257 252 254 260 274 274 277 226 100 107 116 122 136 121 131 134 131 144 156 157 154 156 160 166 171 173 172 170 163 150 142 140 131 137 150 149 142 138 130 126 129 137 126 123 132 159 185 199 184